Overview Statistics Trail Chart Weather Telemetry Raw packets
 

This is the latest recevied weather packets stored in our database for station/object YO6KXQ-10. If no packets are shown the sender has not sent any weather packets the latest 10 day(s).

<< 11 12 13 14 15 16 17 >>
Time Temp. Humidity Pressure Rain* Wind** Luminosity Snow
1777462710 18.89° C 55% 1021.3 hPa - - - -
1777461690 18.89° C 55% 1021.5 hPa - - - -
1777460670 18.89° C 56% 1021.6 hPa - - - -
1777459650 18.89° C 56% 1021.7 hPa - - - -
1777458630 18.89° C 56% 1021.9 hPa - - - -
1777457610 18.89° C 56% 1022.1 hPa - - - -
1777456589 18.89° C 56% 1022.1 hPa - - - -
1777455569 19.44° C 56% 1022 hPa - - - -
1777454549 19.44° C 55% 1022.2 hPa - - - -
1777453529 19.44° C 58% 1022.4 hPa - - - -
1777452509 19.44° C 58% 1022.5 hPa - - - -
1777451489 19.44° C 58% 1022.4 hPa - - - -
1777450468 19.44° C 58% 1022.4 hPa - - - -
1777449447 19.44° C 57% 1022.6 hPa - - - -
1777448427 19.44° C 56% 1022.6 hPa - - - -
1777447407 19.44° C 54% 1022.6 hPa - - - -
1777446387 19.44° C 54% 1022.5 hPa - - - -
1777445367 18.33° C 53% 1022.5 hPa - - - -
1777444347 17.78° C 55% 1022.5 hPa - - - -
1777443326 17.78° C 55% 1022.5 hPa - - - -
1777442306 17.78° C 55% 1022.6 hPa - - - -
1777441286 17.78° C 55% 1022.5 hPa - - - -
1777440266 17.78° C 55% 1022.4 hPa - - - -
1777439246 17.78° C 55% 1022.3 hPa - - - -
1777438225 17.78° C 55% 1022.2 hPa - - - -

* Rain since midnight (hover to see other rain measurements)
** Current wind speed in m/s (hover to see current wind gust speed)